START_TIME,STEP,MOV.,AL01,t_acc.,AL02,t_acc.,E37,t_acc.,H21,t_acc.
1979-02-28 21:00:23.750 ,1,1,0.,24.0,0.,24.0,0.,24.0,0.,24.0
1979-02-28 21:00:47.750 ,2,1,0.,24.0,0.,24.0,0.,24.0,0.,24.0
1979-02-28 21:01:11.750 ,3,1,0.,24.0,0.,24.0,1.,24.0,0.,24.0
1979-02-28 21:01:35.750 ,4,1,0.,24.0,0.,24.0,0.,24.0,0.,24.0
1979-02-28 21:01:59.750 ,5,1,0.,24.0,0.,24.0,0.,24.0,0.,24.0
1979-02-28 21:02:23.750 ,6,1,0.,24.0,0.,24.0,0.,24.0,0.,24.0
1979-02-28 21:02:47.750 ,7,1,2.,24.0,0.,24.0,1.,24.0,0.,24.0
1979-02-28 21:03:11.750 ,7,1,12.,24.0,0.,24.0,0.,24.0,0.,24.0
1979-02-28 21:03:35.750 ,6,1,8.,24.0,0.,24.0,1.,24.0,0.,24.0
1979-02-28 21:03:59.750 ,5,1,0.,24.0,0.,24.0,0.,24.0,0.,24.0
1979-02-28 21:04:23.750 ,4,1,0.,24.0,0.,24.0,1.,24.0,0.,24.0
1979-02-28 21:04:47.750 ,3,1,0.,24.0,0.,24.0,0.,24.0,0.,24.0
1979-02-28 21:05:11.750 ,2,1,0.,24.0,0.,24.0,0.,24.0,0.,24.0
1979-02-28 21:05:35.750 ,1,1,0.,24.0,0.,24.0,0.,24.0,0.,24.0
1979-02-28 21:05:59.750 ,0,1,0.,24.0,1.,24.0,0.,24.0,0.,24.0
1979-02-28 21:06:23.750 ,0,1,0.,24.0,0.,24.0,0.,24.0,0.,24.0
1979-02-28 21:06:47.750 ,1,1,1.,24.0,0.,24.0,0.,24.0,0.,24.0
1979-02-28 21:07:11.740 ,2,1,0.,24.0,0.,24.0,0.,24.0,0.,24.0
1979-02-28 21:07:35.750 ,3,1,0.,24.0,1.,24.0,1.,24.0,0.,24.0
1979-02-28 21:07:59.750 ,4,1,0.,24.0,0.,24.0,0.,24.0,0.,24.0
1979-02-28 21:08:23.750 ,5,1,0.,24.0,1.,24.0,0.,24.0,0.,24.0
1979-02-28 21:08:47.740 ,6,1,0.,24.0,0.,24.0,0.,24.0,0.,24.0
1979-02-28 21:09:11.740 ,7,1,1.,24.0,1.,24.0,0.,24.0,0.,24.0
1979-02-28 21:09:35.740 ,7,1,8.,24.0,0.,24.0,0.,24.0,0.,24.0
1979-02-28 21:09:59.740 ,6,1,9.,24.0,0.,24.0,0.,24.0,0.,24.0
1979-02-28 21:10:23.740 ,5,1,0.,24.0,0.,24.0,0.,24.0,0.,24.0
1979-02-28 21:10:47.740 ,4,1,0.,24.0,0.,24.0,1.,24.0,0.,24.0
1979-02-28 21:11:11.740 ,3,1,0.,24.0,0.,24.0,1.,24.0,0.,24.0
1979-02-28 21:11:35.740 ,2,1,0.,24.0,0.,24.0,0.,24.0,0.,24.0
1979-02-28 21:11:59.740 ,1,1,1.,24.0,0.,24.0,0.,24.0,0.,24.0
1979-02-28 21:12:23.740 ,0,1,0.,24.0,0.,24.0,0.,24.0,0.,24.0
1979-02-28 21:12:47.740 ,0,1,0.,24.0,0.,24.0,0.,24.0,0.,24.0
1979-02-28 21:13:11.740 ,1,1,1.,24.0,0.,24.0,0.,24.0,0.,24.0
1979-02-28 21:13:35.740 ,2,1,0.,24.0,0.,24.0,0.,24.0,0.,24.0
1979-02-28 21:13:59.740 ,3,1,0.,24.0,0.,24.0,0.,24.0,0.,24.0
1979-02-28 21:14:23.740 ,4,1,0.,24.0,0.,24.0,2.,24.0,0.,24.0
1979-02-28 21:14:47.740 ,5,1,0.,24.0,0.,24.0,0.,24.0,0.,24.0
1979-02-28 21:15:11.740 ,6,1,0.,24.0,0.,24.0,0.,24.0,0.,24.0
1979-02-28 21:15:35.740 ,7,1,1.,24.0,0.,24.0,1.,24.0,0.,24.0
1979-02-28 21:15:59.740 ,7,1,7.,24.0,0.,24.0,1.,24.0,0.,24.0
1979-02-28 21:16:23.740 ,6,1,8.,24.0,1.,24.0,0.,24.0,0.,24.0
1979-02-28 21:16:47.740 ,5,1,0.,24.0,0.,24.0,0.,24.0,0.,24.0
1979-02-28 21:17:11.740 ,4,1,0.,24.0,0.,24.0,0.,24.0,0.,24.0
1979-02-28 21:17:35.740 ,3,1,1.,24.0,1.,24.0,1.,24.0,0.,24.0
1979-02-28 21:17:59.740 ,2,1,0.,24.0,0.,24.0,0.,24.0,0.,24.0
1979-02-28 21:18:23.740 ,1,1,0.,24.0,1.,24.0,1.,24.0,0.,24.0
1979-02-28 21:18:47.740 ,0,1,0.,24.0,0.,24.0,0.,24.0,0.,24.0
1979-02-28 21:19:11.740 ,0,1,0.,24.0,1.,24.0,0.,24.0,0.,24.0
1979-02-28 21:19:35.740 ,1,1,0.,24.0,0.,24.0,0.,24.0,0.,24.0
1979-02-28 21:19:59.740 ,2,1,0.,24.0,0.,24.0,0.,24.0,0.,24.0
1979-02-28 21:20:23.740 ,3,1,0.,24.0,0.,24.0,0.,24.0,0.,24.0
1979-02-28 21:20:47.740 ,4,1,1.,24.0,0.,24.0,0.,24.0,0.,24.0
1979-02-28 21:21:11.740 ,5,1,0.,24.0,0.,24.0,0.,24.0,0.,24.0
1979-02-28 21:21:35.740 ,6,1,1.,24.0,0.,24.0,0.,24.0,0.,24.0
1979-02-28 21:21:59.740 ,7,1,0.,24.0,0.,24.0,1.,24.0,0.,24.0
1979-02-28 21:22:23.740 ,7,1,9.,24.0,0.,24.0,0.,24.0,0.,24.0
1979-02-28 21:22:47.740 ,6,1,6.,24.0,0.,24.0,0.,24.0,0.,24.0
1979-02-28 21:23:11.740 ,5,1,0.,24.0,0.,24.0,1.,24.0,0.,24.0
1979-02-28 21:23:35.740 ,4,1,0.,24.0,0.,24.0,0.,24.0,0.,24.0
1979-02-28 21:23:59.740 ,3,1,0.,24.0,0.,24.0,0.,24.0,0.,24.0
1979-02-28 21:24:23.740 ,2,1,0.,24.0,1.,24.0,0.,24.0,0.,24.0
1979-02-28 21:24:47.740 ,1,1,0.,24.0,0.,24.0,0.,24.0,0.,24.0
1979-02-28 21:25:11.740 ,0,1,1.,24.0,0.,24.0,1.,24.0,0.,24.0
1979-02-28 21:25:35.740 ,0,1,0.,24.0,0.,24.0,0.,24.0,0.,24.0
1979-02-28 21:25:59.740 ,1,1,0.,24.0,0.,24.0,0.,24.0,0.,24.0
1979-02-28 21:26:23.740 ,2,1,0.,24.0,0.,24.0,0.,24.0,0.,24.0
1979-02-28 21:26:47.740 ,3,1,0.,24.0,0.,24.0,0.,24.0,0.,24.0
1979-02-28 21:27:11.740 ,4,1,0.,24.0,0.,24.0,0.,24.0,0.,24.0
1979-02-28 21:27:35.740 ,5,1,0.,24.0,0.,24.0,0.,24.0,0.,24.0
1979-02-28 21:27:59.740 ,6,1,0.,24.0,0.,24.0,2.,24.0,0.,24.0
1979-02-28 21:28:23.740 ,7,1,2.,24.0,0.,24.0,0.,24.0,0.,24.0
1979-02-28 21:28:47.740 ,7,1,4.,24.0,0.,24.0,0.,24.0,0.,24.0
1979-02-28 21:29:11.740 ,6,1,9.,24.0,0.,24.0,0.,24.0,0.,24.0
1979-02-28 21:29:35.740 ,5,1,1.,24.0,0.,24.0,0.,24.0,0.,24.0
1979-02-28 21:29:59.740 ,4,1,0.,24.0,0.,24.0,0.,24.0,0.,24.0
1979-02-28 21:30:23.740 ,3,1,0.,24.0,0.,24.0,0.,24.0,0.,24.0
1979-02-28 21:30:47.740 ,2,1,0.,24.0,0.,24.0,1.,24.0,0.,24.0
1979-02-28 21:31:11.740 ,1,1,1.,24.0,0.,24.0,1.,24.0,0.,24.0
1979-02-28 21:31:35.740 ,0,1,0.,24.0,0.,24.0,0.,24.0,0.,24.0
1979-02-28 21:31:59.740 ,0,1,0.,24.0,0.,24.0,0.,24.0,0.,24.0
1979-02-28 21:32:23.740 ,1,1,0.,24.0,0.,24.0,0.,24.0,0.,24.0
1979-02-28 21:32:47.740 ,2,1,0.,24.0,0.,24.0,0.,24.0,0.,24.0
1979-02-28 21:33:11.740 ,3,1,0.,24.0,0.,24.0,0.,24.0,0.,24.0
1979-02-28 21:33:35.740 ,4,1,0.,24.0,0.,24.0,0.,24.0,0.,24.0
1979-02-28 21:33:59.740 ,5,1,0.,24.0,0.,24.0,0.,24.0,0.,24.0
1979-02-28 21:34:23.750 ,6,1,0.,24.0,0.,24.0,0.,24.0,0.,24.0
1979-02-28 21:34:47.750 ,7,1,1.,24.0,0.,24.0,1.,24.0,0.,24.0
1979-02-28 21:35:11.750 ,7,1,7.,24.0,0.,24.0,0.,24.0,0.,24.0
1979-02-28 21:35:35.750 ,6,1,5.,24.0,0.,24.0,0.,24.0,0.,24.0
1979-02-28 21:35:59.750 ,5,1,0.,24.0,0.,24.0,1.,24.0,0.,24.0
1979-02-28 21:36:23.750 ,4,1,0.,24.0,0.,24.0,0.,24.0,0.,24.0
1979-02-28 21:36:47.750 ,3,1,0.,24.0,0.,24.0,0.,24.0,0.,24.0
1979-02-28 21:37:11.750 ,2,1,0.,24.0,0.,24.0,0.,24.0,0.,24.0
1979-02-28 21:37:35.750 ,1,1,1.,24.0,0.,24.0,0.,24.0,0.,24.0
1979-02-28 21:37:59.750 ,0,1,0.,24.0,0.,24.0,0.,24.0,0.,24.0
1979-02-28 21:38:23.750 ,0,1,0.,24.0,0.,24.0,0.,24.0,0.,24.0
1979-02-28 21:38:47.750 ,1,1,1.,24.0,0.,24.0,0.,24.0,0.,24.0
1979-02-28 21:39:11.750 ,2,1,0.,24.0,0.,24.0,0.,24.0,0.,24.0
1979-02-28 21:39:35.750 ,3,1,0.,24.0,0.,24.0,0.,24.0,0.,24.0
1979-02-28 21:39:59.750 ,4,1,0.,24.0,0.,24.0,0.,24.0,0.,24.0
1979-02-28 21:40:23.750 ,5,1,0.,24.0,0.,24.0,0.,24.0,0.,24.0
1979-02-28 21:40:47.750 ,6,1,0.,24.0,0.,24.0,0.,24.0,0.,24.0
1979-02-28 21:41:11.750 ,7,1,0.,24.0,0.,24.0,0.,24.0,0.,24.0
1979-02-28 21:41:35.750 ,7,1,5.,24.0,0.,24.0,0.,24.0,0.,24.0
1979-02-28 21:41:59.750 ,6,1,6.,24.0,0.,24.0,0.,24.0,0.,24.0
1979-02-28 21:42:23.750 ,5,1,0.,24.0,0.,24.0,0.,24.0,0.,24.0
1979-02-28 21:42:47.750 ,4,1,0.,24.0,0.,24.0,1.,24.0,0.,24.0
1979-02-28 21:43:11.750 ,3,1,0.,24.0,0.,24.0,0.,24.0,0.,24.0
1979-02-28 21:43:35.750 ,2,1,1.,24.0,0.,24.0,1.,24.0,0.,24.0
1979-02-28 21:43:59.750 ,1,1,0.,24.0,0.,24.0,0.,24.0,0.,24.0
1979-02-28 21:44:23.750 ,0,1,0.,24.0,0.,24.0,0.,24.0,0.,24.0
1979-02-28 21:44:47.750 ,0,1,0.,24.0,0.,24.0,0.,24.0,0.,24.0
1979-02-28 21:45:11.750 ,1,1,0.,24.0,0.,24.0,0.,24.0,0.,24.0
1979-02-28 21:45:35.750 ,2,1,0.,24.0,0.,24.0,0.,24.0,0.,24.0
1979-02-28 21:45:59.750 ,3,1,0.,24.0,0.,24.0,0.,24.0,0.,24.0
1979-02-28 21:46:23.750 ,4,1,0.,24.0,0.,24.0,0.,24.0,0.,24.0
1979-02-28 21:46:47.750 ,5,1,0.,24.0,0.,24.0,0.,24.0,0.,24.0
1979-02-28 21:47:11.750 ,6,1,0.,24.0,0.,24.0,0.,24.0,0.,24.0
1979-02-28 21:47:35.750 ,7,1,1.,24.0,0.,24.0,0.,24.0,0.,24.0
1979-02-28 21:47:59.750 ,7,1,9.,24.0,1.,24.0,0.,24.0,0.,24.0
1979-02-28 21:48:23.750 ,6,1,6.,24.0,0.,24.0,0.,24.0,0.,24.0
1979-02-28 21:48:47.750 ,5,1,0.,24.0,0.,24.0,0.,24.0,0.,24.0
1979-02-28 21:49:11.750 ,4,1,0.,24.0,0.,24.0,0.,24.0,0.,24.0
1979-02-28 21:49:35.750 ,3,1,0.,24.0,0.,24.0,0.,24.0,0.,24.0
1979-02-28 21:49:59.750 ,2,1,0.,24.0,0.,24.0,0.,24.0,0.,24.0
1979-02-28 21:50:23.750 ,1,1,0.,24.0,0.,24.0,1.,24.0,0.,24.0
1979-02-28 21:50:47.750 ,0,1,0.,24.0,1.,24.0,0.,24.0,0.,24.0
1979-02-28 21:51:11.750 ,0,1,0.,24.0,0.,24.0,0.,24.0,0.,24.0
1979-02-28 21:51:35.750 ,1,1,0.,24.0,0.,24.0,0.,24.0,0.,24.0
1979-02-28 21:51:59.750 ,2,1,1.,24.0,1.,24.0,0.,24.0,0.,24.0
1979-02-28 21:52:23.750 ,3,1,0.,24.0,0.,24.0,0.,24.0,0.,24.0
1979-02-28 21:52:47.750 ,4,1,0.,24.0,0.,24.0,0.,24.0,0.,24.0
1979-02-28 21:53:11.750 ,5,1,0.,24.0,0.,24.0,1.,24.0,0.,24.0
1979-02-28 21:53:35.750 ,6,1,0.,24.0,0.,24.0,1.,24.0,0.,24.0
1979-02-28 21:53:59.750 ,7,1,2.,24.0,0.,24.0,0.,24.0,0.,24.0
1979-02-28 21:54:23.750 ,7,1,5.,24.0,0.,24.0,0.,24.0,0.,24.0
1979-02-28 21:54:47.750 ,6,1,6.,24.0,0.,24.0,0.,24.0,0.,24.0
1979-02-28 21:55:11.750 ,5,1,0.,24.0,0.,24.0,0.,24.0,0.,24.0
1979-02-28 21:55:35.750 ,4,1,0.,24.0,0.,24.0,1.,24.0,0.,24.0
1979-02-28 21:55:59.750 ,3,1,0.,24.0,0.,24.0,0.,24.0,0.,24.0
1979-02-28 21:56:23.750 ,2,1,0.,24.0,0.,24.0,0.,24.0,0.,24.0
1979-02-28 21:56:47.750 ,1,1,0.,24.0,1.,24.0,0.,24.0,0.,24.0
1979-02-28 21:57:11.750 ,0,1,0.,24.0,0.,24.0,0.,24.0,0.,24.0
1979-02-28 21:57:35.750 ,0,1,0.,24.0,0.,24.0,0.,24.0,0.,24.0
1979-02-28 21:57:59.750 ,1,1,0.,24.0,0.,24.0,0.,24.0,0.,24.0
1979-02-28 21:58:23.750 ,2,1,1.,24.0,0.,24.0,0.,24.0,0.,24.0
1979-02-28 21:58:47.750 ,3,1,0.,24.0,0.,24.0,0.,24.0,0.,24.0
1979-02-28 21:59:11.750 ,4,1,0.,24.0,0.,24.0,0.,24.0,0.,24.0
1979-02-28 21:59:35.750 ,5,1,0.,24.0,0.,24.0,0.,24.0,0.,24.0
1979-02-28 21:59:59.750 ,6,1,0.,24.0,0.,24.0,0.,24.0,0.,24.0
1979-02-28 22:00:23.750 ,7,1,3.,24.0,0.,24.0,0.,24.0,0.,24.0
1979-02-28 22:00:47.750 ,7,1,7.,24.0,0.,24.0,0.,24.0,0.,24.0
1979-02-28 22:01:11.750 ,6,1,5.,24.0,0.,24.0,0.,24.0,0.,24.0
1979-02-28 22:01:35.750 ,5,1,1.,24.0,0.,24.0,0.,24.0,0.,24.0
1979-02-28 22:01:59.750 ,4,1,0.,24.0,0.,24.0,0.,24.0,0.,24.0
1979-02-28 22:02:23.750 ,3,1,0.,24.0,1.,24.0,0.,24.0,0.,24.0
1979-02-28 22:02:47.750 ,2,1,0.,24.0,0.,24.0,0.,24.0,0.,24.0
1979-02-28 22:03:11.750 ,1,1,0.,24.0,0.,24.0,0.,24.0,0.,24.0
1979-02-28 22:03:35.750 ,0,1,0.,24.0,0.,24.0,0.,24.0,0.,24.0
1979-02-28 22:03:59.750 ,0,1,0.,24.0,0.,24.0,0.,24.0,0.,24.0
1979-02-28 22:04:23.750 ,1,1,0.,24.0,0.,24.0,0.,24.0,0.,24.0
1979-02-28 22:04:47.750 ,2,1,1.,24.0,0.,24.0,0.,24.0,0.,24.0
1979-02-28 22:05:11.750 ,3,1,0.,24.0,0.,24.0,0.,24.0,0.,24.0
1979-02-28 22:05:35.750 ,4,1,0.,24.0,0.,24.0,0.,24.0,0.,24.0
1979-02-28 22:05:59.750 ,5,1,0.,24.0,0.,24.0,0.,24.0,0.,24.0
1979-02-28 22:06:23.750 ,6,1,1.,24.0,1.,24.0,0.,24.0,0.,24.0
1979-02-28 22:06:47.750 ,7,1,2.,24.0,0.,24.0,0.,24.0,0.,24.0
1979-02-28 22:07:11.750 ,7,1,9.,24.0,0.,24.0,0.,24.0,0.,24.0
1979-02-28 22:07:35.750 ,6,1,6.,24.0,0.,24.0,0.,24.0,0.,24.0
1979-02-28 22:07:59.750 ,5,1,0.,24.0,1.,24.0,0.,24.0,0.,24.0
1979-02-28 22:08:23.750 ,4,1,0.,24.0,0.,24.0,1.,24.0,0.,24.0
1979-02-28 22:08:47.750 ,3,1,0.,24.0,0.,24.0,0.,24.0,0.,24.0
1979-02-28 22:09:11.750 ,2,1,0.,24.0,0.,24.0,0.,24.0,0.,24.0
1979-02-28 22:09:35.750 ,1,1,0.,24.0,0.,24.0,1.,24.0,0.,24.0
1979-02-28 22:09:59.750 ,0,1,0.,24.0,0.,24.0,0.,24.0,0.,24.0
1979-02-28 22:10:23.750 ,0,1,0.,24.0,0.,24.0,0.,24.0,0.,24.0
1979-02-28 22:10:47.750 ,1,1,0.,24.0,0.,24.0,0.,24.0,0.,24.0
1979-02-28 22:11:11.750 ,2,1,0.,24.0,0.,24.0,0.,24.0,0.,24.0
1979-02-28 22:11:35.750 ,3,1,0.,24.0,0.,24.0,1.,24.0,0.,24.0
1979-02-28 22:11:59.750 ,4,1,0.,24.0,0.,24.0,0.,24.0,0.,24.0
1979-02-28 22:12:23.750 ,5,1,0.,24.0,0.,24.0,0.,24.0,0.,24.0
1979-02-28 22:12:47.750 ,6,1,0.,24.0,0.,24.0,0.,24.0,0.,24.0
1979-02-28 22:13:11.750 ,7,1,1.,24.0,0.,24.0,0.,24.0,0.,24.0
1979-02-28 22:13:35.750 ,7,1,8.,24.0,0.,24.0,0.,24.0,0.,24.0
1979-02-28 22:13:59.750 ,6,1,6.,24.0,0.,24.0,0.,24.0,0.,24.0
1979-02-28 22:14:23.750 ,5,1,0.,24.0,0.,24.0,0.,24.0,0.,24.0
1979-02-28 22:14:47.750 ,4,1,0.,24.0,0.,24.0,0.,24.0,0.,24.0
1979-02-28 22:15:11.750 ,3,1,1.,24.0,0.,24.0,0.,24.0,0.,24.0
1979-02-28 22:15:35.750 ,2,1,0.,24.0,0.,24.0,0.,24.0,0.,24.0
1979-02-28 22:15:59.750 ,1,1,0.,24.0,0.,24.0,0.,24.0,0.,24.0
1979-02-28 22:16:23.750 ,0,1,0.,24.0,0.,24.0,0.,24.0,0.,24.0
1979-02-28 22:16:47.750 ,0,1,0.,24.0,0.,24.0,1.,24.0,0.,24.0
1979-02-28 22:17:11.750 ,1,1,0.,24.0,0.,24.0,2.,24.0,0.,24.0
1979-02-28 22:17:35.750 ,2,1,0.,24.0,0.,24.0,0.,24.0,0.,24.0
1979-02-28 22:17:59.750 ,3,1,0.,24.0,0.,24.0,0.,24.0,0.,24.0
1979-02-28 22:18:23.750 ,4,1,0.,24.0,0.,24.0,0.,24.0,0.,24.0
1979-02-28 22:18:47.750 ,5,1,0.,24.0,0.,24.0,0.,24.0,0.,24.0
1979-02-28 22:19:11.750 ,6,1,1.,24.0,0.,24.0,0.,24.0,0.,24.0
1979-02-28 22:19:35.750 ,7,1,3.,24.0,0.,24.0,1.,24.0,0.,24.0
1979-02-28 22:19:59.750 ,7,1,8.,24.0,0.,24.0,0.,24.0,0.,24.0
1979-02-28 22:20:23.750 ,6,1,3.,24.0,0.,24.0,0.,24.0,0.,24.0
1979-02-28 22:20:47.750 ,5,1,0.,24.0,0.,24.0,1.,24.0,0.,24.0
1979-02-28 22:21:11.750 ,4,1,0.,24.0,0.,24.0,0.,24.0,0.,24.0
1979-02-28 22:21:35.750 ,3,1,0.,24.0,0.,24.0,0.,24.0,0.,24.0
1979-02-28 22:21:59.750 ,2,1,0.,24.0,0.,24.0,0.,24.0,0.,24.0
1979-02-28 22:22:23.750 ,1,1,0.,24.0,0.,24.0,1.,24.0,0.,24.0
1979-02-28 22:22:47.750 ,0,1,0.,24.0,0.,24.0,0.,24.0,0.,24.0
1979-02-28 22:23:11.750 ,0,1,0.,24.0,0.,24.0,0.,24.0,0.,24.0
1979-02-28 22:23:35.750 ,1,1,0.,24.0,0.,24.0,0.,24.0,0.,24.0
1979-02-28 22:23:59.750 ,2,1,0.,24.0,0.,24.0,0.,24.0,0.,24.0
1979-02-28 22:24:23.750 ,3,1,0.,24.0,0.,24.0,0.,24.0,0.,24.0
1979-02-28 22:24:47.750 ,4,1,0.,24.0,0.,24.0,0.,24.0,0.,24.0
1979-02-28 22:25:11.750 ,5,1,1.,24.0,0.,24.0,0.,24.0,0.,24.0
1979-02-28 22:25:35.750 ,6,1,0.,24.0,0.,24.0,2.,24.0,0.,24.0
1979-02-28 22:25:59.750 ,7,1,4.,24.0,0.,24.0,1.,24.0,0.,24.0
1979-02-28 22:26:23.750 ,7,1,12.,24.0,0.,24.0,1.,24.0,0.,24.0
1979-02-28 22:26:47.750 ,6,1,10.,24.0,0.,24.0,0.,24.0,0.,24.0
1979-02-28 22:27:11.750 ,5,1,0.,24.0,0.,24.0,1.,24.0,0.,24.0
1979-02-28 22:27:35.750 ,4,1,0.,24.0,0.,24.0,0.,24.0,0.,24.0
1979-02-28 22:27:59.750 ,3,1,0.,24.0,0.,24.0,0.,24.0,0.,24.0
1979-02-28 22:28:23.750 ,2,1,0.,24.0,0.,24.0,1.,24.0,0.,24.0
1979-02-28 22:28:47.750 ,1,1,0.,24.0,0.,24.0,0.,24.0,0.,24.0
1979-02-28 22:29:11.750 ,0,1,0.,24.0,0.,24.0,0.,24.0,0.,24.0
1979-02-28 22:29:35.750 ,0,1,0.,24.0,0.,24.0,0.,24.0,0.,24.0
1979-02-28 22:29:59.750 ,1,1,0.,24.0,0.,24.0,0.,24.0,0.,24.0
1979-02-28 22:30:23.750 ,2,1,0.,24.0,0.,24.0,0.,24.0,0.,24.0
1979-02-28 22:30:47.750 ,3,1,0.,24.0,0.,24.0,1.,24.0,0.,24.0
1979-02-28 22:31:11.750 ,4,1,0.,24.0,0.,24.0,0.,24.0,0.,24.0
1979-02-28 22:31:35.750 ,5,1,0.,24.0,0.,24.0,0.,24.0,0.,24.0
1979-02-28 22:31:59.750 ,6,1,0.,24.0,0.,24.0,0.,24.0,0.,24.0
1979-02-28 22:32:23.750 ,7,1,1.,24.0,0.,24.0,0.,24.0,0.,24.0
1979-02-28 22:32:47.750 ,7,1,8.,24.0,0.,24.0,0.,24.0,0.,24.0
1979-02-28 22:33:11.750 ,6,1,9.,24.0,0.,24.0,0.,24.0,0.,24.0
1979-02-28 22:33:35.750 ,5,1,0.,24.0,0.,24.0,0.,24.0,0.,24.0
1979-02-28 22:33:59.750 ,4,1,0.,24.0,0.,24.0,0.,24.0,0.,24.0
1979-02-28 22:34:23.750 ,3,1,0.,24.0,0.,24.0,1.,24.0,0.,24.0
1979-02-28 22:34:47.750 ,2,1,0.,24.0,0.,24.0,0.,24.0,0.,24.0
1979-02-28 22:35:11.750 ,1,1,0.,24.0,0.,24.0,0.,24.0,0.,24.0
1979-02-28 22:35:35.750 ,0,1,0.,24.0,0.,24.0,0.,24.0,0.,24.0
1979-02-28 22:35:59.750 ,0,1,0.,24.0,0.,24.0,1.,24.0,0.,24.0
1979-02-28 22:36:23.750 ,1,1,0.,24.0,0.,24.0,0.,24.0,0.,24.0
1979-02-28 22:36:47.750 ,2,1,1.,24.0,0.,24.0,0.,24.0,0.,24.0
1979-02-28 22:37:11.750 ,3,1,0.,24.0,0.,24.0,0.,24.0,0.,24.0
1979-02-28 22:37:35.750 ,4,1,2.,24.0,1.,24.0,0.,24.0,0.,24.0
1979-02-28 22:37:59.750 ,5,1,0.,24.0,1.,24.0,0.,24.0,0.,24.0
1979-02-28 22:38:23.750 ,6,1,1.,24.0,0.,24.0,0.,24.0,0.,24.0
1979-02-28 22:38:47.750 ,7,1,0.,24.0,0.,24.0,0.,24.0,0.,24.0
1979-02-28 22:39:11.750 ,7,1,9.,24.0,0.,24.0,0.,24.0,0.,24.0
1979-02-28 22:39:35.750 ,6,1,8.,24.0,0.,24.0,0.,24.0,0.,24.0
1979-02-28 22:39:59.750 ,5,1,0.,24.0,0.,24.0,1.,24.0,0.,24.0
1979-02-28 22:40:23.750 ,4,1,0.,24.0,0.,24.0,0.,24.0,0.,24.0
1979-02-28 22:40:47.750 ,3,1,0.,24.0,0.,24.0,0.,24.0,0.,24.0
1979-02-28 22:41:11.750 ,2,1,0.,24.0,0.,24.0,0.,24.0,0.,24.0
1979-02-28 22:41:35.750 ,1,1,0.,24.0,0.,24.0,0.,24.0,0.,24.0
1979-02-28 22:41:59.750 ,0,1,0.,24.0,0.,24.0,0.,24.0,0.,24.0
1979-02-28 22:42:23.750 ,0,1,0.,24.0,0.,24.0,0.,24.0,0.,24.0
1979-02-28 22:42:47.750 ,1,1,0.,24.0,0.,24.0,0.,24.0,0.,24.0
1979-02-28 22:43:11.750 ,2,1,1.,24.0,0.,24.0,0.,24.0,0.,24.0
1979-02-28 22:43:35.750 ,3,1,0.,24.0,0.,24.0,0.,24.0,0.,24.0
1979-02-28 22:43:59.750 ,4,1,0.,24.0,0.,24.0,0.,24.0,0.,24.0
1979-02-28 22:44:23.750 ,5,1,1.,24.0,0.,24.0,0.,24.0,0.,24.0
1979-02-28 22:44:47.750 ,6,1,0.,24.0,0.,24.0,0.,24.0,0.,24.0
1979-02-28 22:45:11.750 ,7,1,4.,24.0,0.,24.0,0.,24.0,0.,24.0
1979-02-28 22:45:35.750 ,7,1,11.,24.0,0.,24.0,0.,24.0,0.,24.0
1979-02-28 22:45:59.750 ,6,1,12.,24.0,0.,24.0,0.,24.0,0.,24.0
1979-02-28 22:46:23.750 ,5,1,0.,24.0,0.,24.0,0.,24.0,0.,24.0
1979-02-28 22:46:47.750 ,4,1,0.,24.0,0.,24.0,0.,24.0,0.,24.0
1979-02-28 22:47:11.750 ,3,1,0.,24.0,0.,24.0,0.,24.0,0.,24.0
1979-02-28 22:47:35.750 ,2,1,0.,24.0,0.,24.0,0.,24.0,0.,24.0
1979-02-28 22:47:59.750 ,1,1,0.,24.0,0.,24.0,0.,24.0,0.,24.0
1979-02-28 22:48:23.750 ,0,1,0.,24.0,0.,24.0,0.,24.0,0.,24.0
1979-02-28 22:48:47.750 ,0,1,0.,24.0,0.,24.0,0.,24.0,0.,24.0
1979-02-28 22:49:11.750 ,1,1,0.,24.0,0.,24.0,1.,24.0,0.,24.0
1979-02-28 22:49:35.750 ,2,1,0.,24.0,1.,24.0,0.,24.0,0.,24.0
1979-02-28 22:49:59.750 ,3,1,0.,24.0,0.,24.0,1.,24.0,0.,24.0
1979-02-28 22:50:23.750 ,4,1,0.,24.0,0.,24.0,0.,24.0,0.,24.0
1979-02-28 22:50:47.750 ,5,1,1.,24.0,0.,24.0,1.,24.0,0.,24.0
1979-02-28 22:51:11.750 ,6,1,1.,24.0,0.,24.0,0.,24.0,0.,24.0
1979-02-28 22:51:35.750 ,7,1,8.,24.0,0.,24.0,0.,24.0,0.,24.0
1979-02-28 22:51:59.750 ,7,1,12.,24.0,0.,24.0,0.,24.0,0.,24.0
1979-02-28 22:52:23.750 ,6,1,6.,24.0,0.,24.0,0.,24.0,0.,24.0
1979-02-28 22:52:47.750 ,5,1,0.,24.0,0.,24.0,0.,24.0,0.,24.0
1979-02-28 22:53:11.750 ,4,1,0.,24.0,0.,24.0,1.,24.0,0.,24.0
1979-02-28 22:53:35.750 ,3,1,1.,24.0,0.,24.0,0.,24.0,0.,24.0
1979-02-28 22:53:59.750 ,2,1,0.,24.0,0.,24.0,0.,24.0,0.,24.0
1979-02-28 22:54:23.750 ,1,1,0.,24.0,0.,24.0,0.,24.0,0.,24.0
1979-02-28 22:54:47.750 ,0,1,0.,24.0,0.,24.0,0.,24.0,0.,24.0
1979-02-28 22:55:11.750 ,0,1,0.,24.0,0.,24.0,0.,24.0,0.,24.0
1979-02-28 22:55:35.750 ,1,1,0.,24.0,0.,24.0,0.,24.0,0.,24.0
1979-02-28 22:55:59.750 ,2,1,1.,24.0,0.,24.0,0.,24.0,0.,24.0
1979-02-28 22:56:23.750 ,3,1,0.,24.0,0.,24.0,0.,24.0,0.,24.0
1979-02-28 22:56:47.750 ,4,1,0.,24.0,0.,24.0,0.,24.0,0.,24.0
1979-02-28 22:57:11.750 ,5,1,0.,24.0,0.,24.0,0.,24.0,0.,24.0
1979-02-28 22:57:35.750 ,6,1,0.,24.0,0.,24.0,0.,24.0,0.,24.0
1979-02-28 22:57:59.750 ,7,1,2.,24.0,0.,24.0,0.,24.0,0.,24.0
1979-02-28 22:58:23.750 ,7,1,13.,24.0,0.,24.0,0.,24.0,0.,24.0
1979-02-28 22:58:47.750 ,6,1,9.,24.0,0.,24.0,0.,24.0,0.,24.0
1979-02-28 22:59:11.750 ,5,1,1.,24.0,0.,24.0,0.,24.0,0.,24.0
1979-02-28 22:59:35.750 ,4,1,0.,24.0,1.,24.0,0.,24.0,0.,24.0
1979-02-28 22:59:59.750 ,3,1,0.,24.0,0.,24.0,0.,24.0,0.,24.0
1979-02-28 23:00:23.750 ,2,1,0.,24.0,0.,24.0,1.,24.0,0.,24.0
1979-02-28 23:00:47.750 ,1,1,0.,24.0,0.,24.0,1.,24.0,0.,24.0
1979-02-28 23:01:11.750 ,0,1,1.,24.0,0.,24.0,0.,24.0,0.,24.0
1979-02-28 23:01:35.750 ,0,1,0.,24.0,0.,24.0,0.,24.0,0.,24.0
1979-02-28 23:01:59.750 ,1,1,0.,24.0,0.,24.0,0.,24.0,0.,24.0
1979-02-28 23:02:23.750 ,2,1,0.,24.0,1.,24.0,0.,24.0,0.,24.0
1979-02-28 23:02:47.750 ,3,1,0.,24.0,0.,24.0,0.,24.0,0.,24.0
1979-02-28 23:03:11.750 ,4,1,0.,24.0,0.,24.0,0.,24.0,0.,24.0
1979-02-28 23:03:35.750 ,5,1,0.,24.0,0.,24.0,0.,24.0,0.,24.0
1979-02-28 23:03:59.750 ,6,1,1.,24.0,0.,24.0,1.,24.0,0.,24.0
1979-02-28 23:04:23.750 ,7,1,3.,24.0,0.,24.0,0.,24.0,0.,24.0
1979-02-28 23:04:47.750 ,7,1,4.,24.0,0.,24.0,1.,24.0,0.,24.0
1979-02-28 23:05:11.750 ,6,1,4.,24.0,0.,24.0,0.,24.0,0.,24.0
1979-02-28 23:05:35.750 ,5,1,0.,24.0,0.,24.0,0.,24.0,0.,24.0
1979-02-28 23:05:59.750 ,4,1,0.,24.0,0.,24.0,0.,24.0,0.,24.0
1979-02-28 23:06:23.750 ,3,1,1.,24.0,0.,24.0,0.,24.0,0.,24.0
1979-02-28 23:06:47.750 ,2,1,0.,24.0,0.,24.0,0.,24.0,0.,24.0
1979-02-28 23:07:11.750 ,1,1,0.,24.0,0.,24.0,0.,24.0,0.,24.0
1979-02-28 23:07:35.750 ,0,1,0.,24.0,0.,24.0,0.,24.0,0.,24.0
1979-02-28 23:07:59.750 ,0,1,0.,24.0,0.,24.0,1.,24.0,0.,24.0
1979-02-28 23:08:23.750 ,1,1,0.,24.0,0.,24.0,0.,24.0,0.,24.0
1979-02-28 23:08:47.750 ,2,1,0.,24.0,0.,24.0,0.,24.0,0.,24.0
1979-02-28 23:09:11.750 ,3,1,0.,24.0,0.,24.0,0.,24.0,0.,24.0
1979-02-28 23:09:35.750 ,4,1,0.,24.0,0.,24.0,0.,24.0,0.,24.0
1979-02-28 23:09:59.750 ,5,1,0.,24.0,0.,24.0,0.,24.0,0.,24.0
1979-02-28 23:10:23.750 ,6,1,0.,24.0,0.,24.0,0.,24.0,0.,24.0
1979-02-28 23:10:47.750 ,7,1,6.,24.0,0.,24.0,0.,24.0,0.,24.0
1979-02-28 23:11:11.750 ,7,1,10.,24.0,0.,24.0,0.,24.0,0.,24.0
1979-02-28 23:11:35.750 ,6,1,7.,24.0,0.,24.0,0.,24.0,0.,24.0
1979-02-28 23:11:59.750 ,5,1,0.,24.0,0.,24.0,0.,24.0,0.,24.0
1979-02-28 23:12:23.750 ,4,1,0.,24.0,0.,24.0,0.,24.0,0.,24.0
1979-02-28 23:12:47.750 ,3,1,0.,24.0,0.,24.0,0.,24.0,0.,24.0
1979-02-28 23:13:11.750 ,2,1,0.,24.0,0.,24.0,0.,24.0,0.,24.0
1979-02-28 23:13:35.750 ,1,1,0.,24.0,0.,24.0,0.,24.0,0.,24.0
1979-02-28 23:13:59.750 ,0,1,0.,24.0,0.,24.0,0.,24.0,0.,24.0
1979-02-28 23:14:23.750 ,0,1,0.,24.0,0.,24.0,0.,24.0,0.,24.0
1979-02-28 23:14:47.750 ,1,1,0.,24.0,0.,24.0,0.,24.0,0.,24.0
1979-02-28 23:15:11.750 ,2,1,0.,24.0,0.,24.0,0.,24.0,0.,24.0
1979-02-28 23:15:35.750 ,3,1,0.,24.0,0.,24.0,1.,24.0,0.,24.0
1979-02-28 23:15:59.750 ,4,1,0.,24.0,0.,24.0,0.,24.0,0.,24.0
1979-02-28 23:16:23.750 ,5,1,1.,24.0,0.,24.0,1.,24.0,0.,24.0
1979-02-28 23:16:47.750 ,6,1,0.,24.0,0.,24.0,0.,24.0,0.,24.0
1979-02-28 23:17:11.750 ,7,1,1.,24.0,0.,24.0,0.,24.0,0.,24.0
1979-02-28 23:17:35.750 ,7,1,14.,24.0,0.,24.0,0.,24.0,0.,24.0
1979-02-28 23:17:59.750 ,6,1,10.,24.0,0.,24.0,0.,24.0,0.,24.0
1979-02-28 23:18:23.750 ,5,1,1.,24.0,0.,24.0,0.,24.0,0.,24.0
1979-02-28 23:18:47.750 ,4,1,0.,24.0,0.,24.0,0.,24.0,0.,24.0
1979-02-28 23:19:11.750 ,3,1,0.,24.0,0.,24.0,0.,24.0,0.,24.0
1979-02-28 23:19:35.750 ,2,1,0.,24.0,0.,24.0,0.,24.0,0.,24.0
1979-02-28 23:19:59.750 ,1,1,0.,24.0,0.,24.0,0.,24.0,0.,24.0
1979-02-28 23:20:23.750 ,0,1,0.,24.0,0.,24.0,0.,24.0,0.,24.0
1979-02-28 23:20:47.750 ,0,1,1.,24.0,0.,24.0,0.,24.0,0.,24.0
1979-02-28 23:21:11.750 ,1,1,0.,24.0,0.,24.0,0.,24.0,0.,24.0
1979-02-28 23:21:35.750 ,2,1,0.,24.0,0.,24.0,0.,24.0,0.,24.0
1979-02-28 23:21:59.750 ,3,1,0.,24.0,0.,24.0,0.,24.0,0.,24.0
1979-02-28 23:22:23.750 ,4,1,0.,24.0,0.,24.0,1.,24.0,0.,24.0
1979-02-28 23:22:47.750 ,5,1,2.,24.0,0.,24.0,0.,24.0,0.,24.0
year-12-00 00:00:00.000 ,STEP,MOV.,AL01,t_acc.,AL02,t_acc.,E37,t_acc.,H21,t_acc.
1979-02-28 23:23:11.750 ,0,0,0.,24.0,0.,24.0,1.,24.0,0.,24.0
1979-02-28 23:23:35.750 ,7,1,3.,24.0,1.,24.0,0.,24.0,0.,24.0
1979-02-28 23:23:59.750 ,7,1,7.,24.0,0.,24.0,0.,24.0,0.,24.0
1979-02-28 23:24:23.750 ,6,1,6.,24.0,1.,24.0,0.,24.0,0.,24.0
1979-02-28 23:24:47.750 ,5,1,0.,24.0,0.,24.0,0.,24.0,0.,24.0
1979-02-28 23:25:11.750 ,4,1,0.,24.0,0.,24.0,0.,24.0,0.,24.0
1979-02-28 23:25:35.750 ,3,1,0.,24.0,0.,24.0,0.,24.0,0.,24.0
1979-02-28 23:25:59.750 ,2,1,1.,24.0,0.,24.0,0.,24.0,0.,24.0
1979-02-28 23:26:23.750 ,1,1,0.,24.0,0.,24.0,0.,24.0,0.,24.0
1979-02-28 23:26:47.750 ,0,1,0.,24.0,0.,24.0,0.,24.0,0.,24.0
1979-02-28 23:27:11.750 ,0,1,0.,24.0,0.,24.0,0.,24.0,0.,24.0
1979-02-28 23:27:35.750 ,1,1,0.,24.0,0.,24.0,0.,24.0,0.,24.0
1979-02-28 23:27:59.750 ,2,1,0.,24.0,0.,24.0,0.,24.0,0.,24.0
1979-02-28 23:28:23.750 ,3,1,0.,24.0,0.,24.0,0.,24.0,0.,24.0
1979-02-28 23:28:47.750 ,4,1,0.,24.0,0.,24.0,0.,24.0,0.,24.0
1979-02-28 23:29:11.750 ,5,1,0.,24.0,0.,24.0,1.,24.0,0.,24.0
1979-02-28 23:29:35.750 ,6,1,0.,24.0,0.,24.0,0.,24.0,0.,24.0
1979-02-28 23:29:59.750 ,7,1,5.,24.0,1.,24.0,0.,24.0,0.,24.0
1979-02-28 23:30:23.750 ,7,1,11.,24.0,0.,24.0,0.,24.0,0.,24.0
1979-02-28 23:30:47.750 ,6,1,9.,24.0,0.,24.0,0.,24.0,0.,24.0
1979-02-28 23:31:11.750 ,5,1,0.,24.0,0.,24.0,0.,24.0,0.,24.0
1979-02-28 23:31:35.750 ,4,1,0.,24.0,0.,24.0,0.,24.0,0.,24.0
1979-02-28 23:32:47.750 ,0,0,0.,24.0,0.,24.0,0.,24.0,0.,24.0
1979-02-28 23:33:11.750 ,0,1,0.,24.0,0.,24.0,0.,24.0,0.,24.0
1979-02-28 23:33:35.750 ,0,1,0.,24.0,0.,24.0,0.,24.0,0.,24.0
1979-02-28 23:33:59.750 ,1,1,0.,24.0,1.,24.0,0.,24.0,0.,24.0
1979-02-28 23:34:23.750 ,2,1,0.,24.0,0.,24.0,0.,24.0,0.,24.0